Location: Les Caillols
(43.4038°N, 5.3734°E)
Time: 06:26:12
(UTC+00:00)

Daily predictions for brighter satellites

Satellite Brightness Start Highest point End
(mag) Time Altitude Azimuth Time Altitude Azimuth Time Altitude Azimuth
SPOT 3 Rocket 4.1 19:16:04 10° SE 19:20:55 41° ENE 19:25:46 10° N
Cosmos 1515 Rocket 3.6 19:16:29 10° N 19:20:59 84° E 19:25:26 10° S
Cosmos 389 Rocket 3.9 19:18:25 10° NNE 19:21:08 21° ENE 19:23:49 10° SE
Cosmos 2251 Rocket 3.5 19:16:54 10° S 19:22:06 72° ESE 19:27:23 10° NNE
Cosmos 1812 4.1 19:20:01 10° NNE 19:23:04 22° ENE 19:26:05 10° SE
Cosmos 1727 Rocket 4.2 19:17:10 10° N 19:23:25 55° ENE 19:29:37 10° SSE
Cosmos 1151 Rocket 4.3 19:23:37 10° NNW 19:27:40 43° W 19:31:42 10° SSW
Cosmos 1656 4.1 19:22:32 10° NNW 19:27:49 47° ENE 19:33:09 10° SE
Cosmos 1633 3.0 19:26:25 10° SSW 19:29:56 64° W 19:33:27 10° N
Resurs 01 Rocket 2.5 19:28:06 10° SE 19:32:02 33° ENE 19:36:00 10° N
Cosmos 972 Rocket 4.0 19:29:30 10° NNW 19:34:29 63° ENE 19:39:19 10° SSE
Cosmos 1441 Rocket 4.0 19:33:47 10° SSE 19:37:11 32° E 19:40:34 10° NNE
Cosmos 614 Rocket 4.3 19:35:48 10° S 19:40:39 44° ESE 19:45:34 10° NNE
Cosmos 1900 4.3 19:38:58 10° SSW 19:43:54 89° ESE 19:48:57 10° NNE
MONITOR-E 3.8 19:44:39 10° S 19:47:00 67° W 19:49:22 10° NNW
IRIDIUM 103 4.4 19:43:47 10° SSE 19:48:54 60° E 19:54:02 10° N
USA 267 3.2 19:42:56 10° NE 19:49:28 67° SE 19:55:57 10° SW
Cosmos 1821 Rocket 4.1 19:45:07 10° SSE 19:51:02 53° E 19:57:02 10° NNE
COSMOS 2406 3.2 19:47:13 10° SSW 19:52:55 70° ESE 19:58:39 10° NNE
Shenzhou-11 Module 1.2 19:51:46 10° W 19:54:07 77° S 19:55:30 21° E
Cosmos 1743 Rocket 4.2 19:49:48 10° SSW 19:54:11 60° W 19:58:37 10° N
CZ-2C R/B 3.6 19:52:50 10° NNE 19:57:30 79° ESE 20:02:01 10° S
SL-16 R/B 4.5 19:56:45 10° NNE 19:57:54 11° NE 19:59:04 10° NE
Intercosmos 25 3.5 19:54:46 10° N 19:59:02 50° ENE 20:01:25 17° SSE
Lacrosse 5 4.1 19:56:42 10° NW 20:00:20 19° NNE 20:03:57 10° ENE
Cosmos 1862 3.3 19:58:22 10° S 20:02:24 90° ENE 20:06:29 10° N
Sich 1 3.1 19:58:59 10° S 20:03:18 57° E 20:07:41 10° NNE
Cosmos 2369 4.2 19:58:30 10° NNW 20:04:03 47° ENE 20:08:05 18° SE
SJ-6B 4.4 20:00:57 10° SSW 20:04:42 35° W 20:08:26 10° NNW
IRIDIUM 106 4.3 20:01:58 10° S 20:07:11 87° E 20:12:26 10° N
BREEZE-M DEB (TANK) 4.1 20:04:36 10° WNW 20:07:40 26° NNW 20:09:28 10° NE
Cosmos 2082 Rocket 2.7 20:02:57 10° S 20:08:09 38° ESE 20:13:20 10° NE
Meteor 2-6 Rocket 4.4 20:02:46 10° NNW 20:08:16 75° W 20:13:53 10° S
Cosmos 1818 3.7 20:03:09 10° NNW 20:08:36 63° NE 20:12:24 20° SE
Cosmos 2278 4.5 20:07:57 10° NNW 20:13:16 38° ENE 20:16:44 20° ESE
Cosmos 2123 Rocket 4.4 20:07:59 10° N 20:13:56 46° ENE 20:18:06 19° SE
Spot 2 Rocket 4.0 20:11:25 19° SE 20:14:41 44° ENE 20:19:32 10° N
Cosmos 1000 Rocket 4.5 20:11:11 10° N 20:17:28 79° E 20:23:06 13° SSE
Resurs 1-3 4.3 20:14:06 10° S 20:18:23 53° W 20:22:41 10° NNW
Cosmos 2239 Rocket 4.4 20:14:13 10° S 20:20:19 77° E 20:26:28 10° N
Cosmos 2322 Rocket 4.4 20:18:09 10° NNE 20:20:35 13° NE 20:23:00 10° ENE
Cosmos 1190 Rocket 4.0 20:15:47 10° S 20:20:56 60° ESE 20:26:10 10° NNE
Cosmos 1184 Rocket 4.0 20:21:02 25° E 20:21:02 25° E 20:23:44 10° NE
Meteor 1-4 Rocket 3.2 20:18:15 10° N 20:21:30 36° ENE 20:22:26 30° ESE
Terra 3.5 20:21:08 15° E 20:22:54 18° ENE 20:26:08 10° NNE
Cosmos 407 Rocket 3.4 20:18:32 10° SSW 20:23:51 78° ESE 20:29:10 10° NNE
USA 234 3.7 20:18:46 16° ESE 20:23:57 55° NNE 20:30:19 10° NW
Cosmos 1666 Rocket 3.5 20:21:27 15° S 20:24:54 64° E 20:29:12 10° NNE
CZ-2C R/B 4.0 20:20:19 10° N 20:25:05 39° WNW 20:29:52 10° SW
SL-8 R/B 3.9 20:21:34 10° WNW 20:26:20 59° SSW 20:28:49 27° SE
Cosmos 1238 Rocket 4.2 20:28:03 15° ENE 20:28:03 15° ENE 20:29:05 10° NE
MetOp-B 4.1 20:25:45 20° SSE 20:29:36 81° ENE 20:34:59 10° NNW
Meteor 1-27 Rocket 3.8 20:26:27 10° N 20:32:24 88° E 20:36:53 19° S
USA 238 DEB 3.9 20:30:34 10° S 20:36:41 42° ESE 20:43:01 10° NE
USA 238 3.9 20:30:42 10° S 20:36:48 42° ESE 20:43:07 10° NE
SPOT 5 3.7 20:35:54 26° E 20:37:04 29° ENE 20:40:51 10° N
BREEZE-M DEB (TANK) 3.3 20:34:29 10° WNW 20:38:04 23° SW 20:39:00 20° SSW
SPOT 1/Viking Rocket 3.6 20:39:53 29° SE 20:42:30 65° ENE 20:47:41 10° N
Cosmos 1980 Rocket 2.4 20:38:57 10° NNW 20:44:34 58° ENE 20:47:05 32° SE
OE (NEXTSAT) 4.5 20:41:39 10° WNW 20:45:05 56° SSW 20:45:31 51° S
SL-4 R/B 1.9 20:43:11 10° WSW 20:47:09 77° NNW 20:50:51 10° NE
Cosmos 405 Rocket 3.8 20:49:22 28° ENE 20:49:22 28° ENE 20:51:59 10° NNE
BREEZE-M DEB (TANK) 3.7 20:46:04 10° WNW 20:48:47 41° N 20:55:28 10° ENE
Cosmos 1140 Rocket 3.5 20:44:18 10° SSW 20:49:32 81° WNW 20:54:49 10° NNE
Genesis I 3.8 20:46:13 10° NNW 20:49:56 43° NE 20:50:44 37° E
ATLAS 5 CENTAUR R/B 3.3 20:47:31 10° NW 20:53:03 41° WSW 20:57:17 20° S
USA 32 3.9 20:53:02 30° S 20:55:36 72° E 21:00:50 10° N
Cosmos 1633 Rocket 3.3 20:55:05 19° SSW 20:58:12 67° W 21:02:37 10° N
Cosmos 1833 Rocket 3.5 20:53:21 10° SW 20:58:48 52° WNW 21:04:19 10° NNE
Cosmos 1697 Rocket 3.0 20:54:44 10° NNW 21:00:15 59° WSW 21:03:03 28° S
Cosmos 1867 3.5 20:59:46 10° SSW 21:05:13 87° ESE 21:10:42 10° NE
CENTAUR R/B 2.8 21:04:46 37° SE 21:05:16 37° ESE 21:11:21 10° NE
Meteor 1-18 Rocket 4.4 21:02:55 10° N 21:08:24 53° ENE 21:09:49 42° ESE
Okean 1-7 4.0 21:04:37 10° N 21:08:30 32° ENE 21:08:30 32° ENE
Resurs 01 Rocket 3.6 21:05:06 11° SSW 21:08:33 24° W 21:12:11 10° NW
Landsat 7 4.3 21:08:59 30° SSW 21:11:07 54° W 21:15:48 10° NNW
FALCON 9 DEB 3.7 21:09:24 10° WSW 21:12:51 59° NNW 21:15:21 17° NE
Cosmos 1850 Rocket 4.5 21:14:18 41° ESE 21:14:18 41° ESE 21:19:12 10° NE
Meteor 2-4 Rocket 4.5 21:12:48 10° N 21:18:00 35° ENE 21:18:53 33° E
Cosmos 676 Rocket 4.2 21:14:02 15° SSW 21:18:26 73° WNW 21:23:47 10° NNE
Meteor 1-25 Rocket 4.1 21:17:53 32° SSW 21:20:36 84° W 21:26:15 10° N
Cosmos 1470 Rocket 3.7 21:19:31 41° SSW 21:20:55 69° W 21:25:19 10° N
Cosmos 192 4.3 21:17:02 10° NNW 21:21:58 80° WSW 21:22:57 57° S
ATLAS 5 CENTAUR R/B 4.0 21:19:43 10° N 21:22:04 19° NE 21:23:25 17° ENE
GP-B 4.2 21:24:32 10° NNW 21:28:42 40° W 21:30:41 25° SW
NOSS 3-2 (A) 3.3 21:25:37 10° SW 21:31:15 85° NW 21:37:43 10° NE
USA 267 4.3 21:26:07 10° NE 21:32:17 46° NNW 21:38:28 10° W
Cosmos 921 Rocket 2.9 21:30:40 10° NNW 21:34:50 76° W 21:34:50 76° W
NOSS 3-2 (C) 3.2 21:35:52 52° S 21:37:09 68° ESE 21:43:28 10° NE
ERS-1 Rocket 3.3 21:36:08 46° SSW 21:37:19 59° W 21:42:18 10° NNW
Cosmos 841 Rocket 4.4 21:36:44 10° N 21:41:31 35° ENE 21:42:00 34° ENE
Cosmos 540 Rocket 4.4 21:38:14 10° N 21:42:58 34° ENE 21:43:22 34° ENE
SL-16 R/B 2.5 21:37:53 10° NNW 21:43:26 52° ENE 21:44:17 47° E
Lacrosse 5 2.6 21:39:34 10° NW 21:44:26 44° NNE 21:45:31 38° ENE
Cosmos 468 Rocket 3.8 21:39:57 10° NNW 21:45:17 80° ENE 21:45:45 72° SE
Cosmos 1741 Rocket 3.8 21:48:23 76° SE 21:48:37 78° ESE 21:53:54 10° NNE
Cosmos 2082 Rocket 3.7 21:47:04 10° WSW 21:52:14 35° NW 21:57:25 10° N
Terra 2.2 22:00:02 54° WSW 22:00:13 54° W 22:04:54 10° NNW
Cosmos 2322 Rocket 2.3 22:00:10 10° NNW 22:05:50 63° ENE 22:06:13 62° E
Cosmos 2100 Rocket 3.8 22:05:35 65° S 22:06:35 89° WNW 22:12:45 10° N
USA 234 3.5 22:06:06 48° SSW 22:06:59 51° SW 22:13:20 10° WNW
Meteor 1-11 Rocket 4.1 22:09:09 49° ENE 22:09:09 49° ENE 22:14:10 10° NNE
Cosmos 1437 Rocket 4.1 22:08:14 10° NNW 22:10:50 35° NW 22:10:50 35° NW
Cosmos 1869 Rocket 4.1 22:13:01 58° NNW 22:13:01 58° NNW 22:16:46 10° N
SPOT 5 4.2 22:15:08 25° W 22:15:10 25° W 22:18:47 10° NW
Cosmos 2360 Rocket 2.8 22:14:33 10° NNW 22:20:00 45° ENE 22:20:19 44° ENE
ATLAS 3B R/B 3.0 22:21:13 46° E 22:21:13 46° E 22:26:31 10° NE
Geosat 4.0 22:20:48 74° NNE 22:20:48 74° NNE 22:25:33 10° NNW
Iridium 4 Rocket 3.7 22:21:44 53° NNW 22:21:44 53° NNW 22:25:08 10° N
Cosmos 2173 Rocket 4.0 22:21:11 62° SW 22:22:09 74° W 22:28:18 10° N
ALOS 2 4.1 22:27:44 29° NE 22:27:44 29° NE 22:30:40 10° N
SL-4 R/B 3.9 22:23:58 10° WNW 22:27:08 25° NNW 22:27:13 25° N
Cosmos 1725 Rocket 3.9 22:27:19 70° ESE 22:27:27 70° E 22:33:44 10° NNE
Cosmos 1980 Rocket 3.9 22:23:55 10° NW 22:28:04 21° W 22:28:51 21° WSW
Cosmos 1763 Rocket 4.2 22:26:19 10° NNW 22:31:09 46° W 22:31:09 46° W
SL-08 R/B 4.3 22:32:19 78° E 22:32:19 78° E 22:38:24 10° N
Cosmos 2016 Rocket 3.9 22:39:51 74° SW 22:40:21 79° W 22:46:46 10° N
Cosmos 2333 Rocket 3.6 22:35:21 10° N 22:40:21 29° NE 22:41:19 28° ENE
Cosmos 2061 Rocket 3.9 22:41:23 74° WSW 22:41:46 77° W 22:48:00 10° N
Lacrosse 4 Rocket 4.0 22:45:23 14° NE 22:45:23 14° NE 22:46:03 10° NE
Meteor 1-13 Rocket 4.3 22:38:14 10° NNW 22:43:23 69° WNW 22:43:23 69° WNW
MOS 1-B Rocket 4.0 22:40:46 10° N 22:46:22 64° WNW 22:46:43 63° W
Cosmos 1733 Rocket 4.3 22:50:59 38° N 22:50:59 38° N 22:53:46 10° N
Cosmos 1864 Rocket 4.4 22:53:23 73° W 22:53:35 74° W 22:59:50 10° N
Cosmos 1066 Rocket 4.3 22:48:33 10° N 22:53:46 72° NNE 22:53:46 72° NNE
CENTAUR R/B 3.4 22:51:50 21° WSW 22:55:45 46° NW 23:02:35 10° NNE
Meteor 1-23 Rocket 4.3 22:50:16 10° N 22:55:43 75° NNE 22:55:43 75° NNE
Thor Agena Rocket 3.9 22:52:34 10° N 22:57:00 61° NNW 22:57:00 61° NNW
Cosmos 967 Rocket 4.4 22:54:57 10° NW 23:01:03 79° W 23:01:03 79° W
Cosmos 44 4.2 22:58:05 10° NW 23:01:33 45° NW 23:01:33 45° NW
Cosmos 2233 Rocket 3.9 23:14:31 81° WNW 23:14:31 81° WNW 23:20:48 10° N
SL-16 R/B 3.8 23:22:43 10° NW 23:26:08 23° W 23:26:08 23° W
Lacrosse 5 3.7 23:22:39 10° WNW 23:24:41 22° WNW 23:24:41 22° WNW
Cosmos 2322 3.9 23:24:40 10° NNW 23:29:31 66° NNW 23:29:31 66° NNW
Cosmos 2219 Rocket 2.5 23:33:14 10° NNW 23:38:19 64° NNE 23:38:19 64° NNE
Cosmos 2322 Rocket 4.1 23:45:22 10° NW 23:48:01 18° W 23:48:01 18° W
Cosmos 1891 Rocket 4.5 23:53:06 81° ENE 23:53:06 81° ENE 23:59:22 10° N
CZ-2D R/B 4.4 23:52:07 10° ENE 23:54:54 14° E 23:54:54 14° E
